This demonstration page uses our WeatherBlox Daily Observations layout. Learn more.

Left ArrowRight Arrow

39.08367, -84.50855

Hourly Observations for August 2, 2020

Temp ( °F °C ) Dew Point ( °F °C ) Humidity (%) Winds ( mph kmh ) Pressure ( in mb ) Visibility ( mi km ) Precip ( " mm )
12:25 am 00:25 Mostly Cloudy 73 22.8 71 21.7 94 94 SSW 7 11 29.75 1008 10 16 0.00 0.00
12:53 am 00:53 Cloudy 73 22.8 71 21.7 94 94 SSW 7 11 29.76 1008 10 16 0.00 0.00
1:53 am 01:53 Cloudy 73 22.8 70 21.1 90 90 SSW 12 19 29.77 1008 10 16 N/A
2:32 am 02:32 Cloudy with Light Rain 73 22.8 70 21.1 90 90 SW 12 19 29.76 1008 10 16 0.00 0.00
2:44 am 02:44 Cloudy 73 22.8 70 21.1 90 90 SSW 12 19 29.75 1008 10 16 0.00 0.00
2:53 am 02:53 Cloudy with Light Rain 73 22.8 70 21.1 90 90 SSW 14 22 29.76 1008 10 16 0.00 0.00
3:25 am 03:25 Cloudy 73 22.8 70 21.1 90 90 SSW 14 22 29.75 1008 10 16 0.00 0.00
3:46 am 03:46 Cloudy 73 22.8 69 20.6 87 87 SSW 15 24 29.75 1008 10 16 0.00 0.00
3:53 am 03:53 Cloudy with Light Rain 72 22.2 69 20.6 91 91 SW 14 22 29.76 1008 8 13 0.00 0.00
4:04 am 04:04 Cloudy with Light Rain 72 22.2 69 20.6 91 91 SW 14 22 29.76 1008 10 16 0.00 0.00
4:53 am 04:53 Cloudy 71 21.7 67 19.4 87 87 SW 17 28 29.78 1009 10 16 0.00 0.00
5:42 am 05:42 Cloudy 69 20.6 66 18.9 90 90 SSW 16 26 29.80 1009 9 14 N/A
5:53 am 05:53 Cloudy 69 20.6 66 18.9 90 90 SW 16 26 29.81 1009 9 14 N/A
6:46 am 06:46 Cloudy with Light Rain 68 20 65 18.3 90 90 SW 15 24 29.83 1010 6 10 0.00 0.00
6:53 am 06:53 Cloudy 68 20 65 18.3 90 90 SW 15 24 29.83 1010 9 14 0.00 0.00
7:53 am 07:53 Cloudy with Light Rain 67 19.4 65 18.3 93 93 SW 13 20 29.85 1011 4 6 0.00 0.00
8:53 am 08:53 Cloudy with Light Rain 66 18.9 63 17.2 90 90 W 15 24 29.89 1012 6 10 0.01 0.25
9:53 am 09:53 Cloudy 67 19.4 62 16.7 84 84 WSW 12 19 29.91 1013 10 16 0.00 0.00
10:53 am 10:53 Cloudy 68 20 63 17.2 84 84 W 8 13 29.93 1014 10 16 N/A
11:53 am 11:53 Cloudy 70 21.1 63 17.2 79 79 W 16 26 29.95 1014 10 16 N/A
12:53 pm 12:53 Mostly Cloudy 75 23.9 63 17.2 66 66 W 8 13 29.94 1014 10 16 N/A
1:53 pm 13:53 Mostly Cloudy 76 24.4 62 16.7 62 62 WSW 10 17 29.94 1014 10 16 N/A
2:53 pm 14:53 Mostly Sunny 79 26.1 64 17.8 60 60 WSW 10 17 29.94 1014 10 16 N/A
3:53 pm 15:53 Partly Cloudy 81 27.2 64 17.8 57 57 WSW 13 20 29.93 1014 10 16 N/A
4:53 pm 16:53 Mostly Cloudy 79 26.1 63 17.2 58 58 SW 10 17 29.93 1014 10 16 N/A
5:53 pm 17:53 Partly Cloudy 78 25.6 63 17.2 60 60 SSW 8 13 29.93 1013 10 16 N/A
6:53 pm 18:53 Mostly Sunny 79 26.1 64 17.8 60 60 SSW 7 11 29.93 1013 10 16 N/A
7:53 pm 19:53 Sunny 76 24.4 64 17.8 67 67 SSW 8 13 29.94 1014 10 16 N/A
8:53 pm 20:53 Mostly Cloudy 71 21.7 65 18.3 81 81 S 5 7 29.96 1014 10 16 N/A
9:53 pm 21:53 Mostly Clear 72 22.2 66 18.9 82 82 N N/A 29.97 1015 10 16 N/A
10:53 pm 22:53 Clear 70 21.1 67 19.4 90 90 N N/A 29.98 1015 10 16 N/A
11:53 pm 23:53 Clear 68 20 66 18.9 93 93 N N/A 29.98 1015 10 16 N/A

Powered by AerisWeather